Location: Advent Pentecost Church
(32.7757°N, 96.7408°W)
Time: 15:07:21
(UTC+00:00)

Envisat - Visible Passes

Search period start: 23 October 2021 00:00
Search period end: 02 November 2021 00:00
Orbit: 764 x 766 km, 98.2° (Epoch: 22 October)

Date Brightness Start Highest point End Pass type
(mag) Time Alt. Az. Time Alt. Az. Time Alt. Az.
23 Oct 2.9 11:41:02 10° N 11:46:05 71° WNW 11:51:08 10° SSW visible
24 Oct 4.0 11:04:21 10° NNE 11:09:16 47° E 11:14:07 10° S visible
25 Oct 5.6 10:28:37 10° NE 10:32:14 19° E 10:35:50 10° SE visible
25 Oct 3.5 12:06:38 10° N 12:11:18 38° WNW 12:15:57 10° SW visible
26 Oct 3.0 11:29:29 10° NNE 11:34:35 88° E 11:39:40 10° SSW visible
27 Oct 4.6 10:53:02 10° NNE 10:57:41 36° E 11:02:19 10° SSE visible
28 Oct 5.9 10:17:50 10° ENE 10:20:37 15° E 10:23:23 10° SE visible
28 Oct 3.2 11:54:57 10° N 11:59:50 49° WNW 12:04:42 10° SSW visible
29 Oct 3.3 11:18:00 10° NNE 11:23:04 68° ESE 11:28:06 10° S visible
30 Oct 6.4 00:09:55 10° WSW 00:12:10 13° W 00:14:26 10° WNW visible
30 Oct 5.0 10:41:49 10° NE 10:46:07 27° E 10:50:24 10° SSE visible
31 Oct 6.2 10:07:46 10° ENE 10:08:59 11° E 10:10:12 10° ESE visible
31 Oct 2.9 11:43:18 10° N 11:48:21 65° WNW 11:53:22 10° SSW visible
01 Nov 3.9 11:06:34 10° NNE 11:11:31 51° E 11:16:26 10° S visible
